Skip Page Navigation
NASA JPL Caltech
NASA Logo - Jet Propulsion Laboratory + View the NASA Portal
+ Center for Near-Earth Object Studies
JPL Home Earth Solar System Stars & Galaxies Technology
JPL Solar System Dynamics
BODIES ORBITS EPHEMERIDES TOOLS PHYSICAL DATA DISCOVERY FAQ SITE MAP
JPL Small-Body Database Browser
Search: [ help ]  
166 Rhodope (A876 PB)
Classification: Main-belt Asteroid          SPK-ID: 2000166
Ephemeris | Orbit Diagram | Orbital Elements | Mission Design | Physical Parameters | Discovery Circumstances | Close-Approach Data ]

[ show orbit diagram ]
Orbital Elements at Epoch 2459000.5 (2020-May-31.0) TDB
Reference: JPL 36 (heliocentric ecliptic J2000)
 Element Value Uncertainty (1-sigma)   Units 
e .2118879423886876 3.6354e-08  
a 2.684202122098196 8.5522e-09 au
q 2.11545205749146 9.8519e-08 au
i 12.02987231868565 3.5229e-06 deg
node 128.9157314335003 1.9946e-05 deg
peri 264.3227887958886 2.1542e-05 deg
M 188.884434512634 1.0327e-05 deg
tp 2459763.998636839438
(2022-Jul-03.49863684)
4.7887e-05 TDB
period 1606.279992584845
4.40
7.6767e-06
2.102e-08
d
yr
n .2241203287483421 1.0711e-09 deg/d
Q 3.252952186704931 1.0364e-08 au
  Orbit Determination Parameters
   # obs. used (total)      3011  
   data-arc span      49270 days (134.89 yr)  
   first obs. used      1885-09-10  
   last obs. used      2020-08-03  
   planetary ephem.      DE431  
   SB-pert. ephem.      SB431-N16  
   condition code      0  
   norm. resid. RMS      .41045  
   source      ORB  
   producer      Otto Matic  
   solution date      2020-Aug-24 22:11:01  

Additional Information
 Earth MOID = 1.1611 au 
 Jupiter MOID = 2.3241 au 
 T_jup = 3.312 
[ hide covariance matrix ]
Orbital Elements at Epoch 2456483.5 (2013-Jul-10.0) TDB
Reference: JPL 36 (heliocentric ecliptic J2000)
 Element Value Uncertainty (1-sigma)   Units 
e .2097106401668259 3.6399e-08  
q 2.122583326418501 9.8458e-08 au
tp 2456551.757116221026
(2013-Sep-16.25711622)
4.2558e-05 TDB
node 128.9421339372836 1.994e-05 deg
peri 264.7452774130223 2.1568e-05 deg
i 12.02649652411616 3.5218e-06 deg
  Orbit Determination Parameters
   # obs. used (total)      3011  
   data-arc span      49270 days (134.89 yr)  
   first obs. used      1885-09-10  
   last obs. used      2020-08-03  
   planetary ephem.      DE431  
   SB-pert. ephem.      SB431-N16  
   condition code      0  
   norm. resid. RMS      .41045  
   source      ORB  
   producer      Otto Matic  
   solution date      2020-Aug-24 22:11:01  

Additional Information
 Jupiter MOID = 2.3241 au 
 T_jup = 3.312 
Orbit Covariance (6×6)
  e q tp node peri i
e 1.324892342723871E-15 -3.575359972364423E-15 -9.361547884311173E-14 3.528552770110156E-15 -2.97830716934336E-14 1.515820784893426E-15
q -3.575359972364423E-15 9.69392197354161E-15 3.08041884166024E-13 -9.24835227678912E-15 8.912362196396845E-14 -3.956314011808331E-15
tp -9.361547884311173E-14 3.08041884166024E-13 1.811211939492367E-9 -3.548683881161067E-12 3.754343673408978E-10 2.905976037064202E-13
node 3.528552770110156E-15 -9.24835227678912E-15 -3.548683881161067E-12 3.975976773017138E-10 -3.893044841522746E-10 5.10693796672824E-12
peri -2.97830716934336E-14 8.912362196396845E-14 3.754343673408978E-10 -3.893044841522746E-10 4.651897235665364E-10 -4.982125597405423E-12
i 1.515820784893426E-15 -3.956314011808331E-15 2.905976037064202E-13 5.10693796672824E-12 -4.982125597405423E-12 1.240276385478304E-11

Ephemeris | Orbit Diagram | Orbital Elements | Mission Design | Physical Parameters | Discovery Circumstances | Close-Approach Data ]

Physical Parameter Table
Parameter Symbol Value Units Sigma Reference Notes
absolute magnitude H 9.9   n/a MPO473762  
diameter diameter 52.393 km 0.196 urn:nasa:pds:neowise_diameters_albedos::2.0[mainbelt] (http://adsabs.harvard.edu/abs/2014ApJ...791..121M)  
rotation period rot_per 4.715 h n/a LCDB (Rev. 2019-August); Warner et al., 2009 Published Reference List:
[Behrend, R. (2001) Observatoire de Geneve web site, http://obswww.unige.ch/~behrend/page_cou.html]
[Collaborative Asteroid Lightcurve Link (CALL) (2011) http://www.minorplanetobserver.com/DATA/submissions_results.htm]
[Hanus, J.; Durech, J.; Broz, M.; Marciniak, A.; et al. (2013) Astron. Astrophys. 551, A67.]
geometric albedo albedo 0.046   0.004 urn:nasa:pds:neowise_diameters_albedos::2.0[mainbelt] (http://adsabs.harvard.edu/abs/2012ApJ...759L...8M)  
B-V BV 0.725   0.021 EAR-A-5-DDR-UBV-MEAN-VALUES-V1.2 #obs=2; phase (min.=11.88, mean=11.89, max.=11.89) deg.
U-B UB 0.425   0.035 EAR-A-5-DDR-UBV-MEAN-VALUES-V1.2 #obs=2; phase (min.=11.88, mean=11.89, max.=11.89) deg.
Tholen spectral type spec_T GC:   n/a EAR-A-5-DDR-TAXONOMY-V4.0 used 2 color indices
SMASSII spectral type spec_B Xe   n/a EAR-A-5-DDR-TAXONOMY-V4.0 based on a high-resolution spectrum by Xu et al. (1995) or Bus and Binzel (2002)

166 Rhodope (A876 PB)          Discovered 1876-Aug-15 by Peters, C. H. F. at Clinton
Reference: DISCOVERY.DBLast Updated: 2003-08-29

[ show close-approach data ]
Ephemeris | Orbit Diagram | Orbital Elements | Mission Design | Physical Parameters | Discovery Circumstances | Close-Approach Data ]
ABOUT SSD CREDITS/AWARDS PRIVACY/COPYRIGHT GLOSSARY LINKS
FirstGov 2020-Oct-28 09:33 UT
(server date/time)  
NASA Home Page
Site Manager:   Ryan S. Park
Webmaster  Alan B. Chamberlin